Time,TemperatureF,DewpointF,PressureIn,WindDirection,WindDirectionDegrees,WindSpeedMPH,WindSpeedGustMPH,Humidity,HourlyPrecipIn,Conditions,Clouds,dailyrainin,SoftwareType,DateUTC
2013-09-10 01:22:00,82.0,77.0,-100.00,North,355,0.0,0.0,85,-99.99,,,-99.99,,2013-09-10 06:22:00,
2013-09-10 01:32:00,82.0,77.0,-100.00,North,355,0.0,0.0,85,-99.99,,,-99.99,,2013-09-10 06:32:00,
2013-09-10 05:51:00,70.0,70.0,-100.00,North,355,0.0,0.0,99,-99.99,,,-99.99,,2013-09-10 10:51:00,
2013-09-10 06:22:00,70.0,70.0,-100.00,North,355,0.0,0.0,99,-99.99,,,-99.99,,2013-09-10 11:22:00,
2013-09-10 06:33:00,70.0,70.0,-100.00,North,355,0.0,0.0,99,-99.99,,,-99.99,,2013-09-10 11:33:00,
2013-09-10 06:42:00,70.0,70.0,-100.00,North,355,0.0,0.0,99,-99.99,,,-99.99,,2013-09-10 11:42:00,
2013-09-10 09:22:00,80.0,72.0,-100.00,North,355,0.0,0.0,77,-99.99,,,-99.99,,2013-09-10 14:22:00,
2013-09-10 09:32:00,80.0,72.0,-100.00,North,355,0.0,0.0,77,-99.99,,,-99.99,,2013-09-10 14:32:00,
2013-09-10 09:42:00,80.0,72.0,-100.00,North,355,0.0,0.0,77,-99.99,,,-99.99,,2013-09-10 14:42:00,
2013-09-10 09:52:00,80.0,72.0,-100.00,North,355,0.0,0.0,77,-99.99,,,-99.99,,2013-09-10 14:52:00,
2013-09-10 09:54:00,84.0,72.0,-100.00,North,355,0.0,0.0,69,-99.99,,,-99.99,,2013-09-10 14:54:00,
2013-09-10 10:22:00,84.0,72.0,-100.00,North,355,0.0,0.0,69,-99.99,,,-99.99,,2013-09-10 15:22:00,
2013-09-10 10:34:00,84.0,72.0,-100.00,North,355,0.0,0.0,69,-99.99,,,-99.99,,2013-09-10 15:34:00,
2013-09-10 10:43:00,84.0,72.0,-100.00,North,355,0.0,0.0,69,-99.99,,,-99.99,,2013-09-10 15:43:00,
2013-09-10 11:53:00,88.0,73.0,-100.00,North,355,0.0,0.0,62,-99.99,,,-99.99,,2013-09-10 16:53:00,
2013-09-10 13:22:00,92.0,71.0,-100.00,North,355,0.0,0.0,50,-99.99,,,-99.99,,2013-09-10 18:22:00,
2013-09-10 13:32:00,92.0,71.0,-100.00,North,355,0.0,0.0,50,-99.99,,,-99.99,,2013-09-10 18:32:00,
2013-09-10 13:43:00,92.0,71.0,-100.00,North,355,0.0,0.0,50,-99.99,,,-99.99,,2013-09-10 18:43:00,
2013-09-10 14:22:00,93.0,70.0,-100.00,North,355,0.0,0.0,47,-99.99,,,-99.99,,2013-09-10 19:22:00,
2013-09-10 14:32:00,93.0,70.0,-100.00,North,355,0.0,0.0,47,-99.99,,,-99.99,,2013-09-10 19:32:00,
2013-09-10 14:42:00,93.0,70.0,-100.00,North,355,0.0,0.0,47,-99.99,,,-99.99,,2013-09-10 19:42:00,
2013-09-10 14:52:00,93.0,70.0,-100.00,North,355,0.0,0.0,47,-99.99,,,-99.99,,2013-09-10 19:52:00,
2013-09-10 15:22:00,95.0,69.0,-100.00,North,355,0.0,0.0,44,-99.99,,,-99.99,,2013-09-10 20:22:00,
2013-09-10 15:32:00,95.0,69.0,-100.00,North,355,0.0,0.0,44,-99.99,,,-99.99,,2013-09-10 20:32:00,
2013-09-10 15:42:00,95.0,69.0,-100.00,North,355,0.0,0.0,44,-99.99,,,-99.99,,2013-09-10 20:42:00,
2013-09-10 15:52:00,95.0,69.0,-100.00,North,355,0.0,0.0,44,-99.99,,,-99.99,,2013-09-10 20:52:00,
2013-09-10 15:54:00,95.0,67.0,-100.00,North,355,0.0,0.0,41,-99.99,,,-99.99,,2013-09-10 20:54:00,
2013-09-10 16:23:00,95.0,67.0,-100.00,North,355,0.0,0.0,41,-99.99,,,-99.99,,2013-09-10 21:23:00,
2013-09-10 16:34:00,95.0,67.0,-100.00,North,355,0.0,0.0,41,-99.99,,,-99.99,,2013-09-10 21:34:00,
2013-09-10 16:44:00,95.0,67.0,-100.00,North,355,0.0,0.0,41,-99.99,,,-99.99,,2013-09-10 21:44:00,
2013-09-10 17:24:00,94.0,67.0,-100.00,North,355,0.0,0.0,42,-99.99,,,-99.99,,2013-09-10 22:24:00,
2013-09-10 17:33:00,94.0,67.0,-100.00,North,355,0.0,0.0,42,-99.99,,,-99.99,,2013-09-10 22:33:00,
2013-09-10 17:42:00,94.0,67.0,-100.00,North,355,0.0,0.0,42,-99.99,,,-99.99,,2013-09-10 22:42:00,
2013-09-10 17:54:00,94.0,67.0,-100.00,North,355,0.0,0.0,42,-99.99,,,-99.99,,2013-09-10 22:54:00,
2013-09-10 18:23:00,93.0,66.0,-100.00,North,355,0.0,0.0,42,-99.99,,,-99.99,,2013-09-10 23:23:00,
2013-09-10 18:34:00,93.0,66.0,-100.00,North,355,0.0,0.0,42,-99.99,,,-99.99,,2013-09-10 23:34:00,
2013-09-10 18:42:00,93.0,66.0,-100.00,North,355,0.0,0.0,42,-99.99,,,-99.99,,2013-09-10 23:42:00,
2013-09-10 18:53:00,93.0,66.0,-100.00,North,355,0.0,0.0,42,-99.99,,,-99.99,,2013-09-10 23:53:00,
2013-09-10 19:22:00,89.0,66.0,-100.00,North,355,0.0,0.0,47,-99.99,,,-99.99,,2013-09-11 00:22:00,
2013-09-10 19:32:00,89.0,66.0,-100.00,North,355,0.0,0.0,47,-99.99,,,-99.99,,2013-09-11 00:32:00,
2013-09-10 19:42:00,89.0,66.0,-100.00,North,355,0.0,0.0,47,-99.99,,,-99.99,,2013-09-11 00:42:00,
2013-09-10 19:52:00,89.0,66.0,-100.00,North,355,0.0,0.0,47,-99.99,,,-99.99,,2013-09-11 00:52:00,
2013-09-10 20:21:00,82.0,68.0,-100.00,North,355,0.0,0.0,62,-99.99,,,-99.99,,2013-09-11 01:21:00,
2013-09-10 20:32:00,82.0,68.0,-100.00,North,355,0.0,0.0,62,-99.99,,,-99.99,,2013-09-11 01:32:00,
2013-09-10 20:42:00,82.0,68.0,-100.00,North,355,0.0,0.0,62,-99.99,,,-99.99,,2013-09-11 01:42:00,
2013-09-10 20:53:00,82.0,68.0,-100.00,North,355,0.0,0.0,62,-99.99,,,-99.99,,2013-09-11 01:53:00,
2013-09-10 21:22:00,81.0,71.0,-100.00,North,355,0.0,0.0,71,-99.99,,,-99.99,,2013-09-11 02:22:00,
2013-09-10 21:32:00,81.0,71.0,-100.00,North,355,0.0,0.0,71,-99.99,,,-99.99,,2013-09-11 02:32:00,
2013-09-10 21:43:00,81.0,71.0,-100.00,North,355,0.0,0.0,71,-99.99,,,-99.99,,2013-09-11 02:43:00,
2013-09-10 21:52:00,81.0,71.0,-100.00,North,355,0.0,0.0,71,-99.99,,,-99.99,,2013-09-11 02:52:00,